Time,TemperatureF,DewpointF,PressureIn,WindDirection,WindDirectionDegrees,WindSpeedMPH,WindSpeedGustMPH,Humidity,HourlyPrecipIn,Conditions,Clouds,dailyrainin,SoftwareType,DateUTC
2013-01-20 18:12:00,45.2,20.5,29.77,NW,321,7.0,11.0,37,0.00,,,0.00,VWS V14.00,2013-01-20 23:12:00,
2013-01-20 18:17:00,44.9,18.9,29.77,WNW,290,11.0,14.0,35,0.00,,CLR,0.00,VWS V14.00,2013-01-20 23:17:00,
2013-01-20 18:22:00,44.5,19.2,29.78,West,272,4.0,13.0,36,0.00,,CLR,0.00,VWS V14.00,2013-01-20 23:22:00,
2013-01-20 18:27:00,44.3,19.0,29.78,NNE,21,5.0,9.0,36,0.00,,CLR,0.00,VWS V14.00,2013-01-20 23:27:00,
2013-01-20 18:32:00,44.1,18.9,29.79,NNE,24,14.0,15.0,36,0.00,,CLR,0.00,VWS V14.00,2013-01-20 23:32:00,
2013-01-20 18:37:00,43.9,18.7,29.79,NNW,342,4.0,13.0,36,0.00,,CLR,0.00,VWS V14.00,2013-01-20 23:37:00,
2013-01-20 18:42:00,43.6,18.4,29.80,NNE,22,5.0,17.0,36,0.00,,CLR,0.00,VWS V14.00,2013-01-20 23:42:00,
2013-01-20 18:47:00,43.4,18.2,29.80,NNW,327,5.0,13.0,36,0.00,,CLR,0.00,VWS V14.00,2013-01-20 23:47:00,
2013-01-20 18:52:00,42.7,18.3,29.81,NW,307,4.0,13.0,37,0.00,,CLR,0.00,VWS V14.00,2013-01-20 23:52:00,
2013-01-20 18:57:00,42.4,17.4,29.81,NW,318,2.0,18.0,36,0.00,,CLR,0.00,VWS V14.00,2013-01-20 23:57:00,
2013-01-20 19:02:00,42.1,16.4,29.81,NNE,19,6.0,18.0,35,0.00,,CLR,0.00,VWS V14.00,2013-01-21 00:02:00,
2013-01-20 19:07:00,41.7,15.4,29.82,WNW,292,5.0,12.0,34,0.00,,CLR,0.00,VWS V14.00,2013-01-21 00:07:00,
2013-01-20 19:12:00,41.4,15.1,29.82,NW,315,6.0,13.0,34,0.00,,CLR,0.00,VWS V14.00,2013-01-21 00:12:00,
2013-01-20 19:17:00,41.2,15.0,29.82,NW,314,2.0,11.0,34,0.00,,CLR,0.00,VWS V14.00,2013-01-21 00:17:00,
2013-01-20 19:22:00,40.9,15.4,29.83,NW,325,4.0,13.0,35,0.00,,CLR,0.00,VWS V14.00,2013-01-21 00:22:00,
2013-01-20 19:27:00,40.5,17.5,29.83,NE,47,3.0,6.0,39,0.00,,CLR,0.00,VWS V14.00,2013-01-21 00:27:00,
2013-01-20 19:32:00,39.7,19.0,29.83,NW,318,4.0,12.0,43,0.00,,CLR,0.00,VWS V14.00,2013-01-21 00:32:00,
2013-01-20 19:37:00,39.1,19.0,29.84,NE,44,3.0,11.0,44,0.00,,CLR,0.00,VWS V14.00,2013-01-21 00:37:00,
2013-01-20 19:42:00,38.4,19.4,29.84,NNW,340,4.0,9.0,46,0.00,,CLR,0.00,VWS V14.00,2013-01-21 00:42:00,
2013-01-20 19:47:00,38.1,19.2,29.84,NNW,329,6.0,16.0,46,0.00,,CLR,0.00,VWS V14.00,2013-01-21 00:47:00,
2013-01-20 19:52:00,37.9,19.5,29.85,NNE,26,3.0,14.0,47,0.00,,CLR,0.00,VWS V14.00,2013-01-21 00:52:00,
2013-01-20 19:57:00,37.5,19.1,29.85,NNE,24,4.0,7.0,47,0.00,,CLR,0.00,VWS V14.00,2013-01-21 00:57:00,
2013-01-20 20:02:00,37.3,19.4,29.86,NW,322,3.0,13.0,48,0.00,,CLR,0.00,VWS V14.00,2013-01-21 01:02:00,
2013-01-20 20:07:00,37.1,19.2,29.86,NE,53,1.0,11.0,48,0.00,,CLR,0.00,VWS V14.00,2013-01-21 01:07:00,
2013-01-20 20:12:00,36.8,19.5,29.87,NNE,28,4.0,12.0,49,0.00,,CLR,0.00,VWS V14.00,2013-01-21 01:12:00,
2013-01-20 20:17:00,36.7,19.4,29.87,NE,36,2.0,7.0,49,0.00,,CLR,0.00,VWS V14.00,2013-01-21 01:17:00,
2013-01-20 20:22:00,36.4,19.1,29.88,NE,39,2.0,6.0,49,0.00,,CLR,0.00,VWS V14.00,2013-01-21 01:22:00,
2013-01-20 20:27:00,36.1,18.8,29.88,NNW,342,2.0,10.0,49,0.00,,CLR,0.00,VWS V14.00,2013-01-21 01:27:00,
2013-01-20 20:32:00,35.9,19.1,29.88,NE,38,7.0,8.0,50,0.00,,CLR,0.00,VWS V14.00,2013-01-21 01:32:00,
2013-01-20 20:37:00,35.7,18.9,29.89,NNW,330,3.0,7.0,50,0.00,,CLR,0.00,VWS V14.00,2013-01-21 01:37:00,
2013-01-20 20:42:00,35.5,18.7,29.89,NNE,27,4.0,7.0,50,0.00,,CLR,0.00,VWS V14.00,2013-01-21 01:42:00,
2013-01-20 20:47:00,35.3,19.0,29.89,ENE,63,6.0,11.0,51,0.00,,CLR,0.00,VWS V14.00,2013-01-21 01:47:00,
2013-01-20 20:52:00,35.2,18.9,29.89,NNE,17,6.0,11.0,51,0.00,,CLR,0.00,VWS V14.00,2013-01-21 01:52:00,
2013-01-20 20:57:00,35.1,18.8,29.90,NNW,333,3.0,13.0,51,0.00,,CLR,0.00,VWS V14.00,2013-01-21 01:57:00,
2013-01-20 21:03:00,34.9,19.1,29.90,NNW,338,3.0,10.0,52,0.00,,CLR,0.00,VWS V14.00,2013-01-21 02:03:00,
2013-01-20 21:07:00,34.6,18.8,29.90,NNW,341,4.0,7.0,52,0.00,,CLR,0.00,VWS V14.00,2013-01-21 02:07:00,
2013-01-20 21:12:00,34.4,19.0,29.90,NW,312,2.0,6.0,53,0.00,,CLR,0.00,VWS V14.00,2013-01-21 02:12:00,
2013-01-20 21:17:00,34.4,18.6,29.91,NE,47,7.0,11.0,52,0.00,,CLR,0.00,VWS V14.00,2013-01-21 02:17:00,
2013-01-20 21:22:00,34.5,18.2,29.91,WNW,298,6.0,14.0,51,0.00,,CLR,0.00,VWS V14.00,2013-01-21 02:22:00,
2013-01-20 21:27:00,34.4,18.2,29.91,West,276,4.0,16.0,51,0.00,,CLR,0.00,VWS V14.00,2013-01-21 02:27:00,
2013-01-20 21:33:00,34.3,17.6,29.92,NW,306,3.0,11.0,50,0.00,,CLR,0.00,VWS V14.00,2013-01-21 02:33:00,
2013-01-20 21:38:00,34.1,17.9,29.92,ENE,57,11.0,11.0,51,0.00,,CLR,0.00,VWS V14.00,2013-01-21 02:38:00,
2013-01-20 21:43:00,34.0,17.3,29.92,NNE,21,16.0,16.0,50,0.00,,CLR,0.00,VWS V14.00,2013-01-21 02:43:00,
2013-01-20 21:48:00,34.0,17.3,29.92,WSW,245,7.0,11.0,50,0.00,,CLR,0.00,VWS V14.00,2013-01-21 02:48:00,
2013-01-20 21:53:00,34.0,16.9,29.92,WNW,292,4.0,12.0,49,0.00,,CLR,0.00,VWS V14.00,2013-01-21 02:53:00,
2013-01-20 21:58:00,33.7,17.0,29.92,NNW,346,7.0,9.0,50,0.00,,CLR,0.00,VWS V14.00,2013-01-21 02:58:00,
2013-01-20 22:03:00,33.6,17.0,29.92,NW,318,5.0,9.0,50,0.00,,CLR,0.00,VWS V14.00,2013-01-21 03:03:00,
2013-01-20 22:08:00,33.4,16.8,29.93,ENE,63,4.0,8.0,50,0.00,,CLR,0.00,VWS V14.00,2013-01-21 03:08:00,
2013-01-20 22:13:00,33.3,16.7,29.92,NE,36,4.0,8.0,50,0.00,,CLR,0.00,VWS V14.00,2013-01-21 03:13:00,
2013-01-20 22:18:00,33.1,16.5,29.93,West,266,2.0,12.0,50,0.00,,CLR,0.00,VWS V14.00,2013-01-21 03:18:00,
2013-01-20 22:23:00,32.9,16.8,29.94,NW,313,5.0,5.0,51,0.00,,CLR,0.00,VWS V14.00,2013-01-21 03:23:00,
2013-01-20 22:28:00,32.7,16.6,29.94,ENE,59,3.0,6.0,51,0.00,,CLR,0.00,VWS V14.00,2013-01-21 03:28:00,
2013-01-20 22:33:00,32.4,16.3,29.94,NE,49,2.0,11.0,51,0.00,,CLR,0.00,VWS V14.00,2013-01-21 03:33:00,
2013-01-20 22:38:00,32.1,16.5,29.94,NNE,32,10.0,12.0,52,0.00,,CLR,0.00,VWS V14.00,2013-01-21 03:38:00,
2013-01-20 22:43:00,32.0,16.4,29.94,NE,43,5.0,11.0,52,0.00,,CLR,0.00,VWS V14.00,2013-01-21 03:43:00,
2013-01-20 22:48:00,31.8,16.6,29.94,NNE,26,4.0,7.0,53,0.00,,CLR,0.00,VWS V14.00,2013-01-21 03:48:00,
2013-01-20 22:53:00,31.5,16.4,29.94,NW,316,3.0,9.0,53,0.00,,CLR,0.00,VWS V14.00,2013-01-21 03:53:00,
2013-01-20 22:58:00,31.3,16.6,29.95,NNE,12,2.0,5.0,54,0.00,,CLR,0.00,VWS V14.00,2013-01-21 03:58:00,
2013-01-20 23:03:00,31.2,16.5,29.95,NNE,28,5.0,8.0,54,0.00,,CLR,0.00,VWS V14.00,2013-01-21 04:03:00,
2013-01-20 23:08:00,31.2,16.1,29.95,NW,309,3.0,12.0,53,0.00,,CLR,0.00,VWS V14.00,2013-01-21 04:08:00,
2013-01-20 23:13:00,31.2,16.1,29.95,NW,324,3.0,10.0,53,0.00,,CLR,0.00,VWS V14.00,2013-01-21 04:13:00,
2013-01-20 23:18:00,31.2,15.6,29.95,NE,46,5.0,9.0,52,0.00,,CLR,0.00,VWS V14.00,2013-01-21 04:18:00,
2013-01-20 23:23:00,31.0,15.4,29.95,WNW,301,1.0,6.0,52,0.00,,CLR,0.00,VWS V14.00,2013-01-21 04:23:00,
2013-01-20 23:28:00,30.8,15.3,29.95,NW,306,4.0,6.0,52,0.00,,CLR,0.00,VWS V14.00,2013-01-21 04:28:00,
2013-01-20 23:33:00,30.7,15.2,29.95,NE,48,0.0,7.0,52,0.00,,CLR,0.00,VWS V14.00,2013-01-21 04:33:00,
2013-01-20 23:38:00,30.6,15.1,29.95,NE,42,2.0,11.0,52,0.00,,CLR,0.00,VWS V14.00,2013-01-21 04:38:00,
2013-01-20 23:43:00,30.5,14.5,29.95,NW,321,7.0,10.0,51,0.00,,CLR,0.00,VWS V14.00,2013-01-21 04:43:00,
2013-01-20 23:48:00,30.4,14.4,29.95,NNW,335,3.0,11.0,51,0.00,,CLR,0.00,VWS V14.00,2013-01-21 04:48:00,
2013-01-20 23:53:00,30.2,14.3,29.95,NW,320,2.0,5.0,51,0.00,,CLR,0.00,VWS V14.00,2013-01-21 04:53:00,
2013-01-20 23:58:00,30.0,14.1,29.96,West,273,4.0,5.0,51,0.00,,CLR,0.00,VWS V14.00,2013-01-21 04:58:00,